This demonstration page uses our WeatherBlox Daily Observations layout. Learn more.

Left ArrowRight Arrow

Hourly Observations for June 5, 2021

Temp ( °F °C ) Dew Point ( °F °C ) Humidity (%) Winds ( mph kmh ) Pressure ( in mb ) Visibility ( mi km ) Precip ( " mm )
12:15 am 00:15 Clear 71 21.6 56 13.2 59 59 S 13 20 29.77 1008 10 16 N/A
12:35 am 00:35 Clear 71 21.7 56 13.5 60 60 S 13 20 29.76 1008 10 16 N/A
12:55 am 00:55 Clear 71 21.5 57 13.8 62 62 S 13 20 29.76 1008 10 16 N/A
1:15 am 01:15 Clear 71 21.6 57 14 62 62 S 14 22 29.75 1007 10 16 N/A
1:35 am 01:35 Clear 71 21.4 57 14 63 63 S 13 20 29.75 1007 10 16 N/A
1:55 am 01:55 Clear 69 20.6 58 14.2 67 67 S 12 19 29.76 1008 10 16 N/A
2:15 am 02:15 Clear 70 20.9 58 14.3 66 66 SSW 12 19 29.74 1007 10 16 N/A
2:35 am 02:35 Clear 68 20.2 58 14.4 69 69 S 12 19 29.75 1007 10 16 N/A
2:55 am 02:55 Clear 67 19.7 58 14.5 72 72 S 10 17 29.76 1008 10 16 N/A
3:15 am 03:15 Clear 67 19.2 58 14.5 74 74 SSW 8 13 29.76 1008 10 16 N/A
3:35 am 03:35 Clear 67 19.3 58 14.5 74 74 SSW 9 15 29.75 1007 10 16 N/A
3:55 am 03:55 Clear 66 18.8 58 14.5 76 76 S 8 13 29.75 1008 10 16 N/A
4:15 am 04:15 Clear 66 18.7 58 14.5 77 77 SSW 8 13 29.75 1008 10 16 N/A
4:35 am 04:35 Clear 66 18.8 58 14.5 76 76 SSW 9 15 29.75 1008 10 16 N/A
4:55 am 04:55 Clear 65 18.1 58 14.5 80 80 S 8 13 29.76 1008 10 16 N/A
5:15 am 05:15 Clear 66 18.8 58 14.5 76 76 SSW 8 13 29.75 1008 10 16 N/A
5:35 am 05:35 Clear 65 18.6 58 14.5 77 77 SSW 9 15 29.75 1008 10 16 N/A
5:55 am 05:55 Clear 65 18.5 58 14.5 78 78 SSW 7 11 29.76 1008 10 16 N/A
6:15 am 06:15 Sunny 64 17.6 58 14.5 82 82 S 7 11 29.76 1008 10 16 N/A
6:35 am 06:35 Sunny 63 17.4 58 14.5 83 83 SE 3 6 29.78 1008 10 16 N/A
6:55 am 06:55 Sunny 64 17.5 58 14.7 84 84 N N/A 29.77 1008 10 16 N/A
7:15 am 07:15 Sunny 65 18.5 59 14.9 80 80 SSE 6 9 29.78 1008 10 16 N/A
7:35 am 07:35 Sunny 67 19.3 59 15.1 77 77 N N/A 29.77 1008 10 16 N/A
7:55 am 07:55 Sunny 69 20.3 60 15.7 75 75 S 5 7 29.76 1008 10 16 N/A
8:15 am 08:15 Sunny 70 21.2 60 15.4 70 70 SSW 8 13 29.75 1008 10 16 N/A
8:35 am 08:35 Sunny 71 21.8 60 15.5 68 68 SSW 14 22 29.74 1007 10 16 N/A
8:55 am 08:55 Sunny 73 22.5 60 15.8 66 66 SSW 10 17 29.73 1007 10 16 N/A
9:15 am 09:15 Sunny 74 23.1 60 15.8 64 64 SW 14 22 29.73 1007 10 16 N/A
9:35 am 09:35 Sunny 74 23.6 60 15.8 62 62 SW 12 19 29.72 1007 10 16 N/A
9:55 am 09:55 Sunny 76 24.2 61 16.3 61 61 S 7 11 29.72 1006 10 16 N/A
10:15 am 10:15 Sunny 76 24.6 62 16.6 61 61 S 8 13 29.71 1006 10 16 N/A
10:35 am 10:35 Sunny 78 25.3 62 16.5 58 58 SW 7 11 29.70 1006 10 16 N/A
10:55 am 10:55 Sunny 80 26.4 63 17.2 57 57 S 9 15 29.69 1005 10 16 N/A
11:15 am 11:15 Sunny 81 27.3 62 16.8 53 53 S 14 22 29.67 1005 10 16 N/A
11:35 am 11:35 Sunny 83 28.3 62 16.5 49 49 S 20 31 29.66 1005 10 16 N/A
11:55 am 11:55 Sunny 84 29 61 16.1 46 46 S 20 31 29.66 1004 10 16 N/A
12:15 pm 12:15 Sunny 85 29.6 60 15.4 42 42 SSW 17 28 29.65 1004 10 16 N/A
12:35 pm 12:35 Sunny 87 30.5 59 15.1 39 39 SSW 17 28 29.65 1004 10 16 N/A
12:55 pm 12:55 Sunny 87 30.5 58 14.6 38 38 SSW 18 30 29.65 1004 10 16 N/A
1:15 pm 13:15 Sunny 88 30.9 58 14.5 37 37 SSW 17 28 29.64 1004 10 16 N/A
1:35 pm 13:35 Sunny 88 30.9 58 14.2 36 36 S 18 30 29.63 1003 10 16 N/A
1:55 pm 13:55 Sunny 88 31 59 14.9 38 38 S 20 31 29.62 1003 10 16 N/A
2:15 pm 14:15 Sunny 88 31.2 59 15.1 38 38 S 20 31 29.62 1003 10 16 N/A
2:35 pm 14:35 Sunny 88 31.1 59 15.1 38 38 S 17 28 29.62 1003 10 16 N/A
2:55 pm 14:55 Sunny 88 31 59 14.9 38 38 S 23 37 29.61 1003 10 16 N/A
3:15 pm 15:15 Sunny 88 31.3 59 15.2 38 38 S 17 28 29.61 1003 10 16 N/A
3:35 pm 15:35 Sunny 88 31.1 58 14.5 36 36 SSW 18 30 29.61 1003 10 16 N/A
3:55 pm 15:55 Sunny 88 31.1 58 14.6 37 37 S 18 30 29.60 1002 10 16 N/A
4:15 pm 16:15 Sunny 89 31.4 59 15.2 37 37 SSE 21 33 29.60 1002 10 16 N/A
4:35 pm 16:35 Sunny 88 31.2 60 15.6 39 39 S 20 31 29.59 1002 10 16 N/A
4:55 pm 16:55 Sunny 88 31 59 15 38 38 S 16 26 29.59 1002 10 16 N/A
5:15 pm 17:15 Sunny 88 31 58 14.5 37 37 S 17 28 29.59 1002 10 16 N/A
5:35 pm 17:35 Sunny 87 30.8 59 15 38 38 S 16 26 29.58 1002 10 16 N/A
5:55 pm 17:55 Sunny 87 30.5 58 14.7 38 38 SSE 21 33 29.59 1002 10 16 N/A
6:15 pm 18:15 Sunny 87 30.3 58 14.5 38 38 S 17 28 29.58 1002 10 16 N/A
6:35 pm 18:35 Sunny 86 30 59 15.1 40 40 S 16 26 29.58 1002 10 16 N/A
6:55 pm 18:55 Sunny 85 29.7 59 15 41 41 S 17 28 29.58 1002 10 16 N/A
7:15 pm 19:15 Sunny 85 29.4 58 14.7 41 41 S 18 30 29.58 1002 10 16 N/A
7:35 pm 19:35 Sunny 84 29 59 15 43 43 S 16 26 29.58 1002 10 16 N/A
7:55 pm 19:55 Sunny 83 28.5 59 15.1 44 44 S 16 26 29.58 1002 10 16 N/A
8:15 pm 20:15 Sunny 82 28 59 15.1 45 45 S 15 24 29.60 1002 10 16 N/A
8:35 pm 20:35 Sunny 81 27 59 15.2 48 48 S 13 20 29.61 1003 10 16 N/A
8:55 pm 20:55 Sunny 80 26.5 59 15.2 50 50 SSE 12 19 29.62 1003 10 16 N/A
9:15 pm 21:15 Clear 79 25.9 60 15.6 53 53 SSE 16 26 29.62 1003 10 16 N/A
9:35 pm 21:35 Clear 77 25 60 15.7 56 56 SSE 18 30 29.63 1003 10 16 N/A
9:55 pm 21:55 Clear 76 24.6 60 15.3 56 56 SSE 16 26 29.64 1004 10 16 N/A
10:15 pm 22:15 Clear 75 24.1 59 15.1 57 57 S 17 28 29.65 1004 10 16 N/A
10:35 pm 22:35 Clear 74 23.5 59 15 59 59 S 15 24 29.66 1005 10 16 N/A
10:55 pm 22:55 Clear 74 23.2 59 15 60 60 S 15 24 29.67 1005 10 16 N/A
11:15 pm 23:15 Clear 73 22.7 58 14.7 61 61 SSE 16 26 29.67 1005 10 16 N/A
11:35 pm 23:35 Clear 72 22 58 14.6 63 63 S 15 24 29.68 1005 10 16 N/A
11:55 pm 23:55 Clear 71 21.8 58 14.3 63 63 S 16 26 29.68 1005 10 16 N/A

Powered by AerisWeather